Flag for Germany Weather past 2 weeks in Pinneberg, Schleswig-Holstein, Germany

Now
46 °F

Light rain. Partly cloudy.


Feels Like: 42 °F
Forecast: 46 / 53 °F
Wind: 9 mph from West

Location: Hamburg-Fuhlsbuettel

Current Time: Dec 17, 2014 at 10:55:38 PM

Latest Report: Dec 17, 2014 at 10:20 PM


Visibility: 6 mi

Pressure: 29.59 "Hg

Humidity: 93%

Dew point: 45 °F

Location of PinnebergLocation

Historic Weather in Pinneberg — Graph

°F

Pinneberg temperature yesterday

Maximum temperature yesterday: 43 °F (at 10:50 AM)
Minimum temperature yesterday: 36 °F (at 11:50 PM)
Average temperature yesterday: 41 °F

Past Weeks' High & Low Weather Summary

 TemperatureHumidityPressure
High48 °F (Dec 12, 2:50 PM)100% (Dec 3, 10:20 AM)30.30 "Hg (Dec 3, 10:20 AM)
Low25 °F (Dec 3, 12:20 AM)70% (Dec 10, 4:20 AM)29.18 "Hg (Dec 12, 12:50 PM)
Average38 °F90%29.88 "Hg
* Reported Dec 2 9:20 PM — Dec 17 9:20 PM, Pinneberg, Weather by CustomWeather, © 2014

Note: Actual official high and low records may vary slightly from our data, if they occured in-between our weather recording intervals... More about our weather records

Advertising

Pinneberg weather history for previous 24 hours

 ConditionsComfort  
Time TempWeatherWind HumidityBarometerVisibility
9:20 PM
Dec 17
46 °FPartly cloudy.8 mph93%29.59 "HgN/A
8:50 PM45 °FPartly cloudy.6 mph100%29.56 "Hg4 mi
8:20 PM41 °FDrizzle. Fog.2 mph100%29.56 "Hg3 mi
7:50 PM41 °FDrizzle. Fog.5 mph100%29.53 "Hg3 mi
7:20 PM39 °FDrizzle. Fog.7 mph100%29.53 "Hg2 mi
6:50 PM39 °FDrizzle. Fog.7 mph100%29.50 "Hg2 mi
6:20 PM39 °FDrizzle. Fog.8 mph100%29.50 "Hg2 mi
5:50 PM39 °FDrizzle. Fog.8 mph100%29.50 "Hg2 mi
5:20 PM39 °FFog.8 mph93%29.50 "Hg2 mi
4:50 PM37 °FFog.9 mph100%29.50 "Hg2 mi
4:20 PM37 °FLight rain. Fog.10 mph100%29.50 "Hg3 mi
3:50 PM37 °FLight rain. Partly sunny.10 mph100%29.50 "Hg3 mi
3:20 PM37 °FLight rain. Partly sunny.12 mph100%29.50 "Hg4 mi
2:50 PM37 °FLight rain. Partly sunny.13 mph100%29.50 "Hg4 mi
2:20 PM37 °FLight rain. Partly sunny.14 mph100%29.50 "Hg4 mi
1:50 PM37 °FLight rain. Partly sunny.13 mph100%29.53 "Hg4 mi
1:20 PM37 °FLight rain. Partly sunny.14 mph100%29.53 "Hg4 mi
12:50 PM37 °FLight rain. Partly sunny.14 mph93%29.53 "Hg4 mi
12:20 PM39 °FLight rain. Partly sunny.14 mph93%29.56 "Hg4 mi
11:50 AM39 °FLight rain. Partly sunny.14 mph93%29.59 "Hg4 mi
11:20 AM39 °FRain. Partly sunny.16 mph87%29.59 "Hg4 mi
10:50 AM39 °FLight rain. Partly sunny.14 mph93%29.62 "Hg4 mi
10:20 AM39 °FLight rain. Partly sunny.14 mph93%29.65 "Hg5 mi
9:50 AM39 °FPartly sunny.17 mph93%29.65 "Hg4 mi
9:20 AM39 °FPartly sunny.15 mph93%29.65 "Hg4 mi
8:50 AM37 °FPartly sunny.15 mph93%29.68 "Hg4 mi
8:20 AM37 °FPassing clouds.14 mph93%29.68 "Hg4 mi
7:50 AM37 °FPartly cloudy.16 mph93%29.68 "Hg5 mi
7:20 AM37 °FMostly cloudy.14 mph93%29.71 "HgN/A
6:50 AM36 °FMostly cloudy.13 mph93%29.71 "HgN/A
6:20 AM36 °FMostly cloudy.13 mph93%29.71 "HgN/A
5:50 AM36 °FPassing clouds.12 mph93%29.71 "HgN/A
5:20 AM36 °FPassing clouds.12 mph87%29.74 "HgN/A
4:20 AM34 °FPassing clouds.10 mph93%29.74 "HgN/A
3:50 AM36 °FPassing clouds.9 mph87%29.77 "HgN/A
3:20 AM34 °FClear.10 mph93%29.77 "Hg10 mi
2:50 AM36 °FClear.10 mph87%29.77 "Hg10 mi
2:20 AM36 °FClear.9 mph87%29.77 "Hg10 mi
1:50 AM36 °FClear.10 mph93%29.77 "Hg10 mi
1:20 AM37 °FPassing clouds.12 mph87%29.77 "HgN/A
12:50 AM37 °FPassing clouds.12 mph87%29.77 "HgN/A
12:20 AM34 °FPassing clouds.9 mph100%29.77 "HgN/A
11:50 PM
Dec 16
36 °FPassing clouds.9 mph93%29.77 "HgN/A
11:20 PM37 °FSprinkles. Passing clouds.9 mph93%29.77 "HgN/A
10:50 PM37 °FPassing clouds.9 mph87%29.77 "HgN/A
10:20 PM37 °FPassing clouds.10 mph93%29.77 "HgN/A
Weather by CustomWeather, © 2014

See weather overviewHow to use our weather pages